Time,TemperatureF,DewpointF,PressureIn,WindDirection,WindDirectionDegrees,WindSpeedMPH,WindSpeedGustMPH,Humidity,HourlyPrecipIn,Conditions,Clouds,dailyrainin,SolarRadiationWatts/m^2,SoftwareType,DateUTC
2013-07-10 00:02:00,73.5,72.0,30.03,SSE,163,0.0,3.0,96,0.00,,,0.00,0,weatherlink.com 1.10,2013-07-10 04:02:00,
2013-07-10 00:17:00,73.5,72.0,30.02,SSE,163,0.0,2.0,96,0.00,,,0.00,0,weatherlink.com 1.10,2013-07-10 04:17:00,
2013-07-10 00:32:00,73.6,72.0,30.02,SSE,163,0.0,1.0,96,0.00,,,0.00,0,weatherlink.com 1.10,2013-07-10 04:32:00,
2013-07-10 00:47:00,73.7,73.0,30.01,SSE,163,0.0,1.0,96,0.00,,,0.00,0,weatherlink.com 1.10,2013-07-10 04:47:00,
2013-07-10 01:02:00,73.7,73.0,30.01,SSE,167,0.0,4.0,96,0.00,,,0.00,0,weatherlink.com 1.10,2013-07-10 05:02:00,
2013-07-10 01:17:00,73.6,72.0,30.01,SSE,167,0.0,3.0,96,0.00,,,0.00,0,weatherlink.com 1.10,2013-07-10 05:17:00,
2013-07-10 01:32:00,73.6,73.0,30.00,SSE,167,0.0,1.0,97,0.00,,,0.00,0,weatherlink.com 1.10,2013-07-10 05:32:00,
2013-07-10 01:47:00,73.5,73.0,30.00,SSE,167,1.0,2.0,97,0.00,,,0.00,0,weatherlink.com 1.10,2013-07-10 05:47:00,
2013-07-10 02:02:00,73.5,73.0,30.00,SSE,167,0.0,1.0,97,0.00,,,0.00,0,weatherlink.com 1.10,2013-07-10 06:02:00,
2013-07-10 02:17:00,73.5,73.0,29.99,SSE,167,0.0,0.0,97,0.00,,,0.00,0,weatherlink.com 1.10,2013-07-10 06:17:00,
2013-07-10 02:32:00,73.5,73.0,29.99,SSE,167,0.0,0.0,97,0.00,,,0.00,0,weatherlink.com 1.10,2013-07-10 06:32:00,
2013-07-10 02:47:00,73.5,73.0,29.99,SSE,167,0.0,1.0,97,0.00,,,0.00,0,weatherlink.com 1.10,2013-07-10 06:47:00,
2013-07-10 03:02:00,73.6,73.0,29.98,SSE,167,0.0,1.0,97,0.00,,,0.00,0,weatherlink.com 1.10,2013-07-10 07:02:00,
2013-07-10 03:17:00,73.7,73.0,29.98,SSE,167,0.0,1.0,97,0.00,,,0.00,0,weatherlink.com 1.10,2013-07-10 07:17:00,
2013-07-10 03:32:00,73.7,73.0,29.98,SSE,167,0.0,1.0,97,0.00,,,0.00,0,weatherlink.com 1.10,2013-07-10 07:32:00,
2013-07-10 03:47:00,73.6,73.0,29.97,SSE,167,0.0,1.0,97,0.00,,,0.00,0,weatherlink.com 1.10,2013-07-10 07:47:00,
2013-07-10 04:02:00,73.6,72.0,29.97,SSE,167,0.0,0.0,96,0.00,,,0.00,0,weatherlink.com 1.10,2013-07-10 08:02:00,
2013-07-10 04:17:00,73.6,72.0,29.96,SSE,167,0.0,0.0,96,0.00,,,0.00,0,weatherlink.com 1.10,2013-07-10 08:17:00,
2013-07-10 04:32:00,73.7,73.0,29.97,SSE,167,0.0,1.0,96,0.00,,,0.00,0,weatherlink.com 1.10,2013-07-10 08:32:00,
2013-07-10 04:47:00,73.7,73.0,29.97,SSE,167,0.0,0.0,96,0.00,,,0.00,0,weatherlink.com 1.10,2013-07-10 08:47:00,
2013-07-10 05:02:00,73.6,72.0,29.97,SSE,167,0.0,0.0,96,0.00,,,0.00,0,weatherlink.com 1.10,2013-07-10 09:02:00,
2013-07-10 05:17:00,73.5,72.0,29.97,SSE,167,0.0,1.0,96,0.00,,,0.00,0,weatherlink.com 1.10,2013-07-10 09:17:00,
2013-07-10 05:32:00,73.5,72.0,29.97,SSE,167,0.0,0.0,96,0.00,,,0.00,0,weatherlink.com 1.10,2013-07-10 09:32:00,
2013-07-10 05:46:00,73.6,72.0,29.98,SSE,167,0.0,1.0,96,0.00,,,0.00,5,weatherlink.com 1.10,2013-07-10 09:46:00,
2013-07-10 06:02:00,73.7,73.0,29.98,SSE,167,0.0,1.0,96,0.00,,,0.00,18,weatherlink.com 1.10,2013-07-10 10:02:00,
2013-07-10 06:17:00,73.8,73.0,29.98,SSE,167,0.0,1.0,96,0.00,,,0.00,37,weatherlink.com 1.10,2013-07-10 10:17:00,
2013-07-10 06:34:00,73.7,73.0,29.98,SSE,167,0.0,1.0,96,0.00,,,0.00,14,weatherlink.com 1.10,2013-07-10 10:34:00,
2013-07-10 06:47:00,73.7,73.0,29.98,SSE,167,0.0,2.0,96,0.00,,,0.00,11,weatherlink.com 1.10,2013-07-10 10:47:00,
2013-07-10 07:03:00,73.6,72.0,29.98,SSE,167,0.0,1.0,96,0.00,,,0.00,12,weatherlink.com 1.10,2013-07-10 11:03:00,
2013-07-10 07:17:00,73.6,73.0,29.98,SSE,167,0.0,0.0,97,0.06,,,0.06,16,weatherlink.com 1.10,2013-07-10 11:17:00,
2013-07-10 07:32:00,73.5,73.0,29.97,South,172,0.0,5.0,97,0.07,,,0.07,30,weatherlink.com 1.10,2013-07-10 11:32:00,
2013-07-10 07:48:00,73.5,73.0,29.97,South,185,0.0,1.0,97,0.08,,,0.08,35,weatherlink.com 1.10,2013-07-10 11:48:00,
2013-07-10 08:03:00,73.4,73.0,29.97,South,185,0.0,0.0,97,0.08,,,0.08,132,weatherlink.com 1.10,2013-07-10 12:03:00,
2013-07-10 08:19:00,73.8,73.0,29.97,South,185,0.0,1.0,98,0.02,,,0.08,144,weatherlink.com 1.10,2013-07-10 12:19:00,
2013-07-10 08:33:00,74.3,73.0,29.97,South,185,0.0,1.0,97,0.02,,,0.09,299,weatherlink.com 1.10,2013-07-10 12:33:00,
2013-07-10 08:49:00,74.8,74.0,29.97,South,185,0.0,1.0,97,0.01,,,0.09,262,weatherlink.com 1.10,2013-07-10 12:49:00,
2013-07-10 09:03:00,74.6,73.0,29.97,South,184,0.0,2.0,96,0.01,,,0.09,197,weatherlink.com 1.10,2013-07-10 13:03:00,
2013-07-10 09:18:00,75.0,74.0,29.96,SSE,160,3.0,4.0,96,0.01,,,0.09,179,weatherlink.com 1.10,2013-07-10 13:18:00,
2013-07-10 09:33:00,75.1,74.0,29.96,South,183,0.0,7.0,95,0.00,,,0.09,176,weatherlink.com 1.10,2013-07-10 13:33:00,
2013-07-10 09:49:00,74.7,74.0,29.95,SSE,166,0.0,4.0,96,0.00,,,0.09,267,weatherlink.com 1.10,2013-07-10 13:49:00,
2013-07-10 10:04:00,74.7,74.0,29.96,South,183,0.0,4.0,96,0.00,,,0.09,392,weatherlink.com 1.10,2013-07-10 14:04:00,
2013-07-10 10:20:00,76.2,74.0,29.95,South,183,0.0,2.0,94,0.00,,,0.09,301,weatherlink.com 1.10,2013-07-10 14:20:00,
2013-07-10 10:34:00,76.2,74.0,29.94,SE,139,0.0,4.0,93,0.00,,,0.09,257,weatherlink.com 1.10,2013-07-10 14:34:00,
2013-07-10 10:50:00,77.3,75.0,29.93,SE,136,0.0,5.0,91,0.00,,,0.09,947,weatherlink.com 1.10,2013-07-10 14:50:00,
2013-07-10 11:04:00,77.3,74.0,29.94,SE,141,0.0,5.0,90,0.00,,,0.09,418,weatherlink.com 1.10,2013-07-10 15:04:00,
2013-07-10 11:20:00,78.4,74.0,29.94,SW,232,4.0,9.0,87,0.00,,,0.09,360,weatherlink.com 1.10,2013-07-10 15:20:00,
2013-07-10 11:37:00,78.9,74.0,29.94,SSE,160,2.0,10.0,86,0.00,,,0.09,353,weatherlink.com 1.10,2013-07-10 15:37:00,
2013-07-10 11:50:00,79.3,75.0,29.93,South,169,1.0,4.0,87,0.00,,,0.09,418,weatherlink.com 1.10,2013-07-10 15:50:00,
2013-07-10 12:07:00,79.4,75.0,29.93,SE,141,1.0,4.0,86,0.00,,,0.09,424,weatherlink.com 1.10,2013-07-10 16:07:00,
2013-07-10 12:20:00,79.4,75.0,29.92,SE,136,3.0,4.0,86,0.00,,,0.09,459,weatherlink.com 1.10,2013-07-10 16:20:00,
2013-07-10 12:37:00,79.5,75.0,29.91,ESE,121,2.0,6.0,86,0.00,,,0.09,613,weatherlink.com 1.10,2013-07-10 16:37:00,
2013-07-10 12:51:00,79.9,75.0,29.91,ESE,111,0.0,5.0,85,0.00,,,0.09,420,weatherlink.com 1.10,2013-07-10 16:51:00,
2013-07-10 13:07:00,80.5,76.0,29.90,SE,141,0.0,5.0,85,0.00,,,0.09,909,weatherlink.com 1.10,2013-07-10 17:07:00,
2013-07-10 13:21:00,79.9,75.0,29.89,ESE,121,5.0,6.0,86,0.00,,,0.09,362,weatherlink.com 1.10,2013-07-10 17:21:00,
2013-07-10 13:37:00,79.8,76.0,29.89,SSE,167,1.0,6.0,87,0.00,,,0.09,671,weatherlink.com 1.10,2013-07-10 17:37:00,
2013-07-10 13:51:00,80.2,76.0,29.88,SE,125,4.0,7.0,87,0.00,,,0.09,939,weatherlink.com 1.10,2013-07-10 17:51:00,
2013-07-10 14:07:00,80.5,76.0,29.88,SSE,155,4.0,7.0,87,0.00,,,0.09,417,weatherlink.com 1.10,2013-07-10 18:07:00,
2013-07-10 14:22:00,80.6,77.0,29.88,ESE,111,3.0,8.0,87,0.00,,,0.09,919,weatherlink.com 1.10,2013-07-10 18:22:00,
2013-07-10 14:37:00,79.6,76.0,29.87,SSE,150,1.0,7.0,88,0.00,,,0.09,366,weatherlink.com 1.10,2013-07-10 18:37:00,
2013-07-10 14:52:00,79.1,75.0,29.88,SE,138,0.0,4.0,88,0.00,,,0.09,141,weatherlink.com 1.10,2013-07-10 18:52:00,
2013-07-10 15:07:00,78.7,75.0,29.87,SSE,161,0.0,3.0,89,0.00,,,0.09,139,weatherlink.com 1.10,2013-07-10 19:07:00,
2013-07-10 15:22:00,78.3,75.0,29.86,SSW,206,1.0,14.0,90,0.00,,,0.09,241,weatherlink.com 1.10,2013-07-10 19:22:00,
2013-07-10 15:37:00,79.1,76.0,29.85,South,186,2.0,7.0,89,0.00,,,0.09,366,weatherlink.com 1.10,2013-07-10 19:37:00,
2013-07-10 15:52:00,78.5,75.0,29.85,SSW,200,0.0,7.0,90,0.00,,,0.09,285,weatherlink.com 1.10,2013-07-10 19:52:00,
2013-07-10 16:07:00,78.2,75.0,29.85,SSE,168,3.0,6.0,91,0.00,,,0.09,345,weatherlink.com 1.10,2013-07-10 20:07:00,
2013-07-10 16:22:00,78.1,75.0,29.84,South,173,0.0,4.0,91,0.00,,,0.09,127,weatherlink.com 1.10,2013-07-10 20:22:00,
2013-07-10 16:37:00,77.2,75.0,29.84,SSW,200,2.0,10.0,92,0.00,,,0.09,53,weatherlink.com 1.10,2013-07-10 20:37:00,
2013-07-10 16:52:00,77.3,75.0,29.83,SSW,202,4.0,10.0,92,0.00,,,0.09,76,weatherlink.com 1.10,2013-07-10 20:52:00,
2013-07-10 17:07:00,77.0,75.0,29.83,WSW,238,1.0,8.0,92,0.00,,,0.09,39,weatherlink.com 1.10,2013-07-10 21:07:00,
2013-07-10 17:22:00,76.7,75.0,29.82,SSW,206,0.0,7.0,93,0.00,,,0.09,47,weatherlink.com 1.10,2013-07-10 21:22:00,
2013-07-10 17:37:00,76.8,75.0,29.81,South,171,0.0,6.0,93,0.00,,,0.09,128,weatherlink.com 1.10,2013-07-10 21:37:00,
2013-07-10 17:53:00,77.6,75.0,29.80,SW,229,0.0,5.0,92,0.00,,,0.09,192,weatherlink.com 1.10,2013-07-10 21:53:00,
2013-07-10 18:08:00,77.9,76.0,29.81,SW,217,1.0,4.0,92,0.00,,,0.09,100,weatherlink.com 1.10,2013-07-10 22:08:00,
2013-07-10 18:23:00,77.7,75.0,29.81,SW,223,1.0,8.0,91,0.00,,,0.09,81,weatherlink.com 1.10,2013-07-10 22:23:00,
2013-07-10 18:38:00,77.7,75.0,29.81,SSE,159,1.0,7.0,91,0.00,,,0.09,139,weatherlink.com 1.10,2013-07-10 22:38:00,
2013-07-10 18:53:00,78.0,75.0,29.80,South,184,3.0,4.0,91,0.00,,,0.09,81,weatherlink.com 1.10,2013-07-10 22:53:00,
2013-07-10 19:08:00,78.1,75.0,29.81,South,182,3.0,6.0,90,0.00,,,0.09,32,weatherlink.com 1.10,2013-07-10 23:08:00,
2013-07-10 19:23:00,77.8,74.0,29.82,SW,214,1.0,5.0,89,0.00,,,0.09,16,weatherlink.com 1.10,2013-07-10 23:23:00,
2013-07-10 19:37:00,77.7,75.0,29.83,SSW,194,0.0,5.0,90,0.00,,,0.09,11,weatherlink.com 1.10,2013-07-10 23:37:00,
2013-07-10 19:52:00,77.6,74.0,29.82,South,188,5.0,6.0,89,0.00,,,0.09,11,weatherlink.com 1.10,2013-07-10 23:52:00,
2013-07-10 20:07:00,77.4,74.0,29.83,SSW,195,1.0,7.0,90,0.00,,,0.09,7,weatherlink.com 1.10,2013-07-11 00:07:00,
2013-07-10 20:22:00,77.1,74.0,29.83,SSE,164,3.0,7.0,90,0.00,,,0.09,0,weatherlink.com 1.10,2013-07-11 00:22:00,
2013-07-10 20:38:00,77.0,74.0,29.83,SSW,211,0.0,5.0,89,0.00,,,0.09,0,weatherlink.com 1.10,2013-07-11 00:38:00,
2013-07-10 20:53:00,76.8,73.0,29.83,SW,236,0.0,1.0,89,0.00,,,0.09,0,weatherlink.com 1.10,2013-07-11 00:53:00,
2013-07-10 21:08:00,76.7,73.0,29.83,South,183,2.0,4.0,89,0.00,,,0.09,0,weatherlink.com 1.10,2013-07-11 01:08:00,
2013-07-10 21:23:00,76.6,73.0,29.83,South,177,0.0,3.0,89,0.00,,,0.09,0,weatherlink.com 1.10,2013-07-11 01:23:00,
2013-07-10 21:38:00,76.3,73.0,29.84,South,177,0.0,3.0,90,0.00,,,0.09,0,weatherlink.com 1.10,2013-07-11 01:38:00,
2013-07-10 21:53:00,75.9,73.0,29.83,South,177,0.0,1.0,91,0.00,,,0.09,0,weatherlink.com 1.10,2013-07-11 01:53:00,
2013-07-10 22:08:00,75.8,73.0,29.84,South,177,0.0,1.0,91,0.00,,,0.09,0,weatherlink.com 1.10,2013-07-11 02:08:00,
2013-07-10 22:22:00,75.8,73.0,29.84,South,177,0.0,1.0,91,0.00,,,0.09,0,weatherlink.com 1.10,2013-07-11 02:22:00,
2013-07-10 22:37:00,76.0,74.0,29.84,SW,222,1.0,3.0,92,0.00,,,0.09,0,weatherlink.com 1.10,2013-07-11 02:37:00,
2013-07-10 22:52:00,76.0,74.0,29.83,SW,222,0.0,1.0,92,0.00,,,0.09,0,weatherlink.com 1.10,2013-07-11 02:52:00,
2013-07-10 23:07:00,76.0,74.0,29.83,South,170,1.0,5.0,92,0.00,,,0.09,0,weatherlink.com 1.10,2013-07-11 03:07:00,
2013-07-10 23:22:00,76.3,74.0,29.82,SSW,199,1.0,7.0,92,0.00,,,0.09,0,weatherlink.com 1.10,2013-07-11 03:22:00,
2013-07-10 23:37:00,76.4,74.0,29.83,SSW,202,3.0,6.0,91,0.00,,,0.09,0,weatherlink.com 1.10,2013-07-11 03:37:00,
2013-07-10 23:53:00,76.2,74.0,29.82,SSW,205,2.0,4.0,92,0.00,,,0.09,0,weatherlink.com 1.10,2013-07-11 03:53:00,